Погода в Юбилейном

Россия / Республика Бурятия     53°43′35″N   110°14′01″E
темп.,
°C
ветер,
м/с
пор.,
м/с
влажн.,
%
обл.,
%
осадки,
мм/ч
давл.,
гПа
погр.,
м
10 августа, ср
ср1023:00+10ю11750 0.0 100912
02:00+8юв11810 0.0 101010
05:00+7юв11870 0.0 101110
08:00+12сз10670 0.0 1010368
11:00+16сз22511 0.0 1008844
14:00+20зсз12390 0.0 10061157
17:00+20зсз12410 0.0 10051220
20:00+14юз22623 0.0 100623
11 августа, чт
чт1123:00+11ююв226891 0.0 100818
02:00+10ююв117174 0.0 100911
05:00+9юв11780 0.0 101011
08:00+14зюз11540 0.0 1010307
11:00+19з22415 0.0 10081040
14:00+22юз2337100 0.0 10071608
17:00+20зсз2444100 0.0 10061035
20:00+14ю3760100 0.0 1007240
12 августа, пт
пт1223:00+12ю227527 0.0 100837
02:00+10ю22906 0.0 100820
05:00+9ююв119414 0.0 100812
08:00+14зюз127628 0.0 1008534
11:00+18з225834 0.1 10081188
14:00+21з224612 0.1 10061661
17:00+21зсз114314 0.0 10051765
20:00+14ююз34683 0.0 100776
13 августа, сб
сб1323:00+11ю22795 0.0 100826
02:00+10ююв22825 0.0 100918
05:00+9ююв118481 0.0 100914
08:00+14з116499 0.0 1009305
11:00+19з224921 0.0 10071043
14:00+22зюз23394 0.0 10051712
17:00+22юз544216 0.0 10051480
20:00+15ю35670 0.0 100674
14 августа, вс
вс1423:00+12ю22789 0.0 100729
02:00+11ююв22841 0.0 100815
05:00+10ююв21875 0.0 100814
08:00+15з11683 0.0 1008347
11:00+19зсз21500 0.0 10071090
14:00+22зсз12360 0.0 10061587
17:00+22зюз22370 0.0 10051582
20:00+15ююз23550 0.0 100731